Date String (YYYY-MM-DD hh:mm:ss) UTC,Instrument flags,Ambient pressure (hPa),Sample flow (lpm),Bypass flow (lpm),Sample temperature (°C),Ambient temperature (°C),ASC tube jacket temperature (°C),LED temperature (°C),Box temperature (°C),Sample RH (%),Span deviation,Mass concentration (μg/m³),Mass concentration (μg/m³),Mass concentration (μg/m³)
DateTimeUTC,F1_M11,P_M11,Q1_M11,Q2_M11,T1_M11,T2_M11,T3_M11,T4_M11,T5_M11,U1_M11,ZSPAN_M11,X0_M11,X2_M11,X1_M11
2021-11-17 05:00:00,,0821.4,5.00,0.00,28.5,27.7,00.0,37.6,30.3,12.1,0000.0,0011.49,0002.34,0000.79
2021-11-17 05:01:00,,0821.4,5.01,0.00,28.5,27.7,00.0,37.6,30.3,12.1,0000.0,0011.77,0002.33,0000.79
2021-11-17 05:02:00,,0821.4,4.98,0.00,28.5,27.7,00.0,37.6,30.2,12.2,0000.0,0012.35,0002.33,0000.78
2021-11-17 05:03:00,,0821.4,5.00,0.00,28.5,27.7,00.0,37.6,30.2,12.2,0000.0,0012.27,0002.36,0000.76
2021-11-17 05:04:00,,0821.4,5.00,0.00,28.5,27.7,00.0,37.6,30.3,12.2,0000.0,0011.47,0002.30,0000.75
2021-11-17 05:05:00,,0821.4,5.00,0.00,28.5,27.7,00.0,37.6,30.3,12.2,0000.0,0011.09,0002.30,0000.75
2021-11-17 05:06:00,,0821.4,4.99,0.00,28.5,27.7,00.0,37.6,30.3,12.2,0000.0,0010.27,0002.34,0000.74
2021-11-17 05:07:00,,0821.4,5.00,0.00,28.5,27.7,00.0,37.6,30.2,12.2,0000.0,0010.37,0002.35,0000.73
2021-11-17 05:08:00,,0821.4,5.01,0.00,28.5,27.7,00.0,37.6,30.2,12.3,0000.0,0010.67,0002.39,0000.71
2021-11-17 05:09:00,,0821.5,5.00,0.00,28.5,27.6,00.0,37.5,30.2,12.3,0000.0,0010.90,0002.36,0000.70
2021-11-17 05:10:00,,0821.5,4.98,0.00,28.5,27.7,00.0,37.5,30.2,12.3,0000.0,0011.61,0002.37,0000.69
2021-11-17 05:11:00,,0821.5,4.98,0.00,28.5,27.7,00.0,37.5,30.2,12.3,0000.0,0011.21,0002.35,0000.69
2021-11-17 05:12:00,,0821.5,5.00,0.00,28.5,27.7,00.0,37.5,30.2,12.3,0000.0,0011.17,0002.32,0000.68
2021-11-17 05:13:00,,0821.5,4.99,0.00,28.4,27.7,00.0,37.5,30.2,12.4,0000.0,0011.05,0002.34,0000.69
2021-11-17 05:14:00,,0821.6,5.01,0.00,28.4,27.7,00.0,37.5,30.2,12.4,0000.0,0010.70,0002.28,0000.69
2021-11-17 05:15:00,,0821.6,5.00,0.00,28.4,27.6,00.0,37.5,30.1,12.4,0000.0,0011.63,0002.39,0000.69
2021-11-17 05:16:00,,0821.6,5.00,0.00,28.4,27.6,00.0,37.5,30.1,12.5,0000.0,0012.18,0002.49,0000.68
2021-11-17 05:17:00,,0821.6,5.00,0.00,28.3,27.5,00.0,37.5,30.0,12.5,0000.0,0012.25,0002.48,0000.69
2021-11-17 05:18:00,,0821.6,5.00,0.00,28.3,27.5,00.0,37.5,30.0,12.6,0000.0,0011.88,0002.49,0000.68
2021-11-17 05:19:00,,0821.6,4.99,0.00,28.3,27.4,00.0,37.5,30.0,12.6,0000.0,0011.84,0002.56,0000.68
2021-11-17 05:20:00,,0821.6,5.00,0.00,28.3,27.4,00.0,37.4,30.0,12.7,0000.0,0012.04,0002.61,0000.68
2021-11-17 05:21:00,,0821.6,5.00,0.00,28.2,27.3,00.0,37.4,29.9,12.8,0000.0,0011.60,0002.74,0000.69
2021-11-17 05:22:00,,0821.6,4.99,0.00,28.2,27.3,00.0,37.4,29.9,12.9,0000.0,0012.20,0002.84,0000.69
2021-11-17 05:23:00,,0821.7,4.99,0.00,28.2,27.2,00.0,37.4,29.8,13.0,0000.0,0013.11,0002.98,0000.69
2021-11-17 05:24:00,,0821.7,5.00,0.00,28.1,27.2,00.0,37.4,29.8,13.0,0000.0,0013.11,0003.02,0000.68
2021-11-17 05:25:00,,0821.8,4.99,0.00,28.1,27.2,00.0,37.3,29.8,13.0,0000.0,0012.94,0003.10,0000.69
2021-11-17 05:26:00,,0821.8,5.02,0.00,28.1,27.2,00.0,37.3,29.8,13.0,0000.0,0012.90,0003.09,0000.70
2021-11-17 05:27:00,,0821.8,5.01,0.00,28.1,27.2,00.0,37.3,29.8,13.1,0000.0,0014.29,0003.07,0000.70
2021-11-17 05:28:00,,0821.8,5.00,0.00,28.1,27.2,00.0,37.3,29.8,13.2,0000.0,0014.81,0003.11,0000.71
2021-11-17 05:29:00,,0821.8,4.99,0.00,28.1,27.2,00.0,37.3,29.8,13.2,0000.0,0015.96,0003.13,0000.71
2021-11-17 05:30:00,,0821.8,5.01,0.00,28.1,27.2,00.0,37.3,29.8,13.2,0000.0,0016.81,0003.08,0000.72
2021-11-17 05:31:00,,0821.8,4.99,0.00,28.1,27.2,00.0,37.2,29.8,13.2,0000.0,0016.82,0003.07,0000.72
2021-11-17 05:32:00,,0821.8,5.01,0.00,28.0,27.2,00.0,37.2,29.8,13.4,0000.0,0016.35,0003.06,0000.73
2021-11-17 05:33:00,,0821.8,5.00,0.00,28.0,27.2,00.0,37.2,29.7,13.4,0000.0,0015.33,0002.94,0000.73
2021-11-17 05:34:00,,0821.8,5.00,0.00,28.0,27.1,00.0,37.2,29.7,13.5,0000.0,0015.13,0002.88,0000.72
2021-11-17 05:35:00,,0821.8,5.01,0.00,27.9,27.1,00.0,37.2,29.6,13.5,0000.0,0015.85,0002.93,0000.73
2021-11-17 05:36:00,,0821.8,5.00,0.00,27.9,27.0,00.0,37.2,29.6,13.5,0000.0,0016.48,0002.90,0000.73
2021-11-17 05:37:00,,0822.0,5.01,0.00,27.9,27.0,00.0,37.1,29.6,13.5,0000.0,0016.14,0002.94,0000.73
2021-11-17 05:38:00,,0822.1,5.01,0.00,27.9,27.0,00.0,37.1,29.6,13.6,0000.0,0015.18,0003.06,0000.73
2021-11-17 05:39:00,,0821.9,4.99,0.00,27.9,27.0,00.0,37.1,29.6,13.6,0000.0,0016.11,0003.02,0000.72
2021-11-17 05:40:00,,0821.9,5.00,0.00,27.8,27.0,00.0,37.1,29.6,13.7,0000.0,0015.36,0003.02,0000.72
2021-11-17 05:41:00,,0821.9,5.01,0.00,27.8,26.9,00.0,37.1,29.6,13.7,0000.0,0014.79,0002.97,0000.72
2021-11-17 05:42:00,,0821.8,4.99,0.00,27.8,27.0,00.0,37.0,29.5,13.8,0000.0,0014.61,0002.93,0000.72
2021-11-17 05:43:00,,0821.8,5.01,0.00,27.8,26.9,00.0,37.0,29.5,13.8,0000.0,0014.68,0002.78,0000.70
2021-11-17 05:44:00,,0821.8,5.00,0.00,27.8,26.9,00.0,37.0,29.5,13.9,0000.0,0015.02,0002.82,0000.70
2021-11-17 05:45:00,,0822.1,5.00,0.00,27.8,26.9,00.0,37.0,29.5,13.9,0000.0,0014.65,0002.84,0000.70
2021-11-17 05:46:00,,0822.0,4.99,0.00,27.8,26.8,00.0,37.0,29.5,13.9,0000.0,0014.10,0002.75,0000.69
2021-11-17 05:47:00,,0822.1,5.00,0.00,27.7,26.8,00.0,36.9,29.4,14.0,0000.0,0013.44,0002.74,0000.69
2021-11-17 05:48:00,,0822.1,5.00,0.00,27.7,26.8,00.0,36.9,29.4,13.9,0000.0,0013.44,0002.66,0000.69
2021-11-17 05:49:00,,0822.1,5.01,0.00,27.7,26.8,00.0,36.9,29.4,13.9,0000.0,0012.36,0002.45,0000.69
2021-11-17 05:50:00,,0822.1,5.01,0.00,27.7,26.8,00.0,36.9,29.4,13.9,0000.0,0011.00,0002.38,0000.68
2021-11-17 05:51:00,,0822.1,5.00,0.00,27.7,26.8,00.0,36.9,29.4,13.9,0000.0,0010.79,0002.45,0000.67
2021-11-17 05:52:00,,0822.2,4.99,0.00,27.7,26.8,00.0,36.9,29.4,13.9,0000.0,0011.62,0002.57,0000.67
2021-11-17 05:53:00,,0822.2,5.00,0.00,27.7,26.8,00.0,36.9,29.4,13.9,0000.0,0012.06,0002.61,0000.66
2021-11-17 05:54:00,,0822.4,5.00,0.00,27.7,26.8,00.0,36.9,29.4,13.9,0000.0,0012.12,0002.64,0000.67
2021-11-17 05:55:00,,0822.4,5.00,0.00,27.7,26.9,00.0,36.8,29.5,13.9,0000.0,0012.23,0002.64,0000.69
2021-11-17 05:56:00,,0822.3,5.01,0.00,27.7,26.9,00.0,36.8,29.5,13.8,0000.0,0013.10,0002.57,0000.70
2021-11-17 05:57:00,,0822.3,5.00,0.00,27.7,27.0,00.0,36.8,29.5,13.8,0000.0,0013.30,0002.62,0000.71
2021-11-17 05:58:00,,0822.3,5.00,0.00,27.7,27.0,00.0,36.8,29.5,13.8,0000.0,0013.36,0002.72,0000.71
2021-11-17 05:59:00,,0822.2,5.01,0.00,27.8,27.0,00.0,36.8,29.5,13.8,0000.0,0013.67,0002.78,0000.71
